Weather in Pleasanton

United States     37°40′36″N   121°49′32″W
temp.,
°C
wind,
m/s
gust,
m/s
humid.,
%
clouds,
%
prec.,
mm/h
press.,
hPa
HPBL,
m
16 september, thu
thu1623:00+14sw34730 0.0 1011106
02:00+12sw34840 0.0 1011107
05:00+11wsw33840 0.0 101079
08:00+12wsw34740 0.0 1011188
11:00+20wsw33430 0.0 1011543
14:00+26wsw44290 0.0 1009774
17:00+23wsw45410 0.0 1009485
20:00+17wsw34640 0.0 100989
17 september, fri
fri1723:00+13sw34780 0.0 1011115
02:00+12sw34860 0.0 101195
05:00+11wsw22870 0.0 101234
08:00+14wsw22640 0.0 101375
11:00+23nw11320 0.0 1013549
14:00+29w33230 0.0 1012985
17:00+28wsw67250 0.0 1011564
20:00+18wsw35500 0.0 101390
18 september, sat
sat1823:00+14sw45650 0.0 1014152
02:00+12sw34740 0.0 1015114
05:00+11sw34740 0.0 101577
08:00+13sw34645 0.0 1017144
11:00+21wsw55580 0.0 1017618
14:00+24wsw77450 0.0 1016958
17:00+22wsw68581 0.0 1016687
20:00+16wsw36860 0.0 1017246
19 september, sun
sun1923:00+15wsw35945 0.0 1018153
02:00+16sw239349 0.0 101793
05:00+17sw238396 0.0 1017168
08:00+17wsw248499 0.0 1018331
11:00+23wsw55513 0.0 10181112
14:00+26w55298 0.0 10161719
17:00+23wsw55370 0.0 1016905
20:00+16sw33650 0.0 101675
20 september, mon
mon2023:00+14sw33690 0.0 101651
02:00+14sw22665 0.0 101520
05:00+15sw11615 0.0 101511
08:00+17se12430 0.0 1015113
11:00+25n46213 0.0 1015894
14:00+30n45130 0.0 10131301
17:00+31n33120 0.0 10111317
20:00+24sw22200 0.0 101214